TITAN 3C TRANSTAGE DEB

Satellite information

Favourite Embed

Satellite Type and Status

DEBRISIN ORBIT

Key statistics

Satellite TITAN 3C TRANSTAGE DEB at a glance.

Uptime

21755

Days in orbit

Revolutions

≈ 14.6

Per day

Orbit

LEO

Low Earth Orbit

Inclination

32.2

Latest

Satellite identification and parameters

Extended collection of information and parameters for TITAN 3C TRANSTAGE DEB.

Object identification

Identified? True

Debris? True

Object name: TITAN 3C TRANSTAGE DEB

International designator: 1965-082BX

Object number (NORAD): 1716

Object ID (CCSDS): 1716

Country: UNITED STATES OF AMERICA (US)

Current information (Y/N): Y

RCS size: LARGE

Orbital parameters

Period: 98.835 minutes

Inclination: 32.1883 deg

SMA: 7081.096 km

Apoapsis: 730.306 km

Periapsis: 675.617 km

RAAN: 164.7813 deg

Eccentricy: 0.0038616

Argument of periapsis: 296.446 deg

Mean anomaly: 63.2226 deg

Mean motion: 14.56974663 rev/day

Mean motion (dot): 0.00000802 rev/day2

B* drag term: 0.00016611 1/REarth

Two-line elements (TLE)

Creation date: May 8, 2025, 3:01 a.m.

Reference frame: TEME

Reference center: EARTH

Epoch: May 7, 2025, 7:43 p.m. UTC

TLE line 0: 0 TITAN 3C TRANSTAGE DEB

TLE line 1: 1 01716U 65082BX 25127.82176165 .00000802 00000-0 16611-3 0 9997

TLE line 2: 2 01716 32.1883 164.7813 0038616 296.4460 63.2226 14.56974663149328

Live tracking on map

Real-time ground track for satellite TITAN 3C TRANSTAGE DEB.

In-orbit conjunctions

A list of the most updated potential collisions computed for object TITAN 3C TRANSTAGE DEB.

Target Orbit TCA Probability of collision Miss distance Type
CZ-4 DEB SSO 2024-11-14 04:19:23 0.0001848886 833.0 (m) DEBRIS
H-2A DEB SSO 2024-07-30 13:00:04 0.0001957731 142.0 (m) DEBRIS

Associated space launch

The OV2 (Orbiting Vehicle 2) series satellites were originally built for project ARENTS (Advanced Research Environmental Test Satellite), which was intended to obtain supporting data for the Vela program. After the cancellation of the ARENTS program, the already built hardware was reused for OV2, a low-cost series of experimental satellites, which were to be launched for free on Titan-3C test flights to very different orbits.

TITAN 3C TRANSTAGE DEB was lifted into orbit during the mission ‘Titan IIIC | OV2-1’, on board a Titan IIIC space rocket.

The launch took place on Oct. 15, 1965, 5:23 p.m. from Space Launch Complex 40.

For more information about the launch, click the button.

Launch to space Titan IIIC | OV2-1
Titan IIIC | OV2-1

Agency: N/A

Status: Launch Successful

Launch date: Oct. 15, 1965, 5:23 p.m. UTC

Rocket: Titan IIIC

Launch pad: Space Launch Complex 40

Location: Cape Canaveral SFS, FL, USA

...

Latest news about this satellite

There are no fresh news available about this satellite. Check back as we update our databases every day.


Newsletter sign-up

Weekly statistics, charts and insights to help you stay on top of the space industry.